#timestamp,LO_Frequency,Hit,StdDev 
1693000815.3,286047000.2,N
1693000835.2,286047000.3,N
1693000855.0,286047000.0,N
1693000855.9,286047000.0,N
1693000875.7,286046999.7,N
1693000895.6,286047002.7,Y
1693000915.4,286047000.4,P
1693000935.3,286047001.2,P
1693000955.1,286046998.2,P
1693000975.8,286047000.8,N
1693000995.7,286047000.7,N
1693001015.5,286047001.0,N
1693001035.3,286047000.6,N
1693001055.2,286047000.6,N
1693001075.0,286047000.4,N
1693001075.9,286047000.4,N
1693001095.8,286046999.8,N
1693001115.6,286047000.1,N
1693001135.4,286047000.6,N
1693001155.3,286047000.5,N
1693001175.1,286047000.5,N
1693001195.9,286047000.3,N
1693001215.7,286047000.0,N
1693001235.5,286047000.6,N
1693001255.4,286046999.8,N
1693001275.2,286047002.3,Y
1693001295.1,286047001.2,P
1693001296.0,286047001.2,N
1693001315.8,286047000.0,N
1693001335.6,286047000.0,N
1693001355.5,286047000.4,N
1693001375.3,286047000.3,N
1693001395.1,286046999.9,N
1693001415.9,286047000.3,N
1693001435.7,286047000.1,N
1693001455.6,286047000.6,N
1693001475.4,286047000.4,N
1693001495.2,286047000.2,N
1693001515.1,286047002.3,Y
1693001516.0,286047002.3,P
1693001535.8,286047000.4,N
1693001555.7,286046999.8,N
1693001575.5,286046999.8,N
1693001595.3,286046999.7,N
1693001615.2,286046999.7,N
1693001635.0,286047000.1,N
1693001635.9,286047000.1,N
1693001655.7,286047002.6,Y
1693001675.6,286047002.3,P
1693001695.4,286047002.3,N
1693001715.3,286047000.0,N
1693001735.1,286047002.8,N
1693001736.0,286047002.8,N
1693001755.8,286047000.1,N
1693001775.7,286046999.7,N
1693001795.5,286046999.7,N
1693001815.3,286047002.4,N
1693001835.2,286046999.7,N
1693001855.0,286047000.4,N
1693001855.9,286047000.4,N
1693001875.8,286047002.8,N
1693001895.6,286047002.3,N
1693001915.4,286047002.8,N
1693001935.3,286047002.3,N
1693001955.1,286047002.7,N
1693001975.9,286047000.3,N
1693001995.7,286047002.7,N
1693002015.5,286046999.7,N
1693002035.4,286047002.8,N
1693002055.2,286047002.8,N
1693002075.1,286046999.7,N
1693002076.0,286046999.7,N
1693002095.8,286047002.6,N
1693002115.6,286047002.3,N
1693002135.5,286047002.2,N
1693002155.3,286047002.2,N
1693002175.1,286047002.4,N
1693002195.9,286047002.0,N
1693002215.7,286047002.7,N
1693002235.6,286047002.5,N
1693002255.4,286047002.8,N
1693002275.2,286047002.2,N
1693002295.1,286046999.7,N
1693002296.0,286046999.7,N
1693002315.8,286047002.2,N
1693002335.7,286047002.4,N
1693002355.5,286046999.8,N
1693002375.3,286047002.3,N
1693002395.2,286047001.6,N
1693002415.0,286046999.7,N
1693002415.9,286046999.7,N
1693002435.8,286047002.8,N
1693002455.6,286046999.7,N
1693002475.4,286047002.6,N
1693002495.3,286047000.1,N
1693002515.1,286046999.7,N
1693002535.8,286047002.6,N
1693002555.7,286047002.0,N
1693002575.5,286047002.7,N
1693002595.4,286047002.1,N
1693002615.2,286047002.2,N
1693002635.0,286047001.6,N
1693002635.9,286047001.6,N
1693002655.8,286047002.1,N
1693002675.6,286047002.0,N
1693002695.5,286047002.1,N
1693002715.3,286047002.5,N
1693002735.1,286047000.2,N
1693002755.9,286047000.0,N
1693002775.7,286047000.6,N
1693002795.5,286047000.3,N
1693002815.4,286047000.3,N
1693002835.2,286047002.8,N
1693002855.0,286046999.9,N
1693002856.0,286046999.9,N
1693002875.8,286047002.5,N
1693002895.6,286046999.8,N
1693002915.5,286047001.1,N
1693002935.3,286047000.9,N
1693002955.1,286047000.3,N
1693002975.9,286047000.6,N
1693002995.7,286047000.4,N
1693003015.5,286046998.7,N
1693003035.4,286046998.2,N
1693003055.2,286046998.1,N
1693003075.1,286047001.2,N
1693003076.0,286047001.2,N
1693003095.8,286047001.1,N
1693003115.6,286046998.4,N
1693003135.5,286046998.6,N
1693003155.3,286047001.2,N
1693003175.1,286047001.1,N
1693003195.9,286046998.9,N
1693003215.7,286046997.0,N
1693003235.6,286046999.6,N
1693003255.4,286046996.6,N
1693003275.2,286046997.9,N
1693003295.1,286046997.0,N
1693003296.0,286046997.0,N
1693003315.8,286046996.9,N
1693003335.7,286046996.6,N
1693003355.5,286046997.2,N
1693003375.3,286046996.9,N
1693003395.2,286046996.7,N
1693003415.0,286046997.5,N
1693003415.9,286046997.5,N
1693003435.8,286046997.4,N
1693003455.6,286046997.4,N
1693003475.4,286046997.5,N
1693003495.3,286046997.0,N
1693003515.1,286046997.3,N
1693003535.8,286046999.6,N
1693003555.7,286046997.1,N
1693003575.5,286046995.1,Y
1693003595.4,286046999.2,P
1693003615.2,286046996.6,P
1693003635.0,286046996.7,P
1693003635.9,286046996.7,Y
1693003655.8,286046998.1,P
1693003675.6,286046998.5,P
1693003695.5,286046998.3,P
1693003715.3,286046998.1,Y
1693003735.1,286047002.0,P
1693003755.9,286047002.4,N
1693003775.7,286047000.3,N
1693003795.5,286047000.3,N
1693003815.4,286046999.7,N
1693003835.2,286047002.5,N
1693003855.1,286047002.6,N
1693003856.0,286047002.6,N
1693003875.8,286047002.4,N
1693003895.6,286047002.5,N
1693003915.5,286047002.3,N
1693003935.3,286047002.3,N
1693003955.1,286047000.5,N
1693003975.9,286046999.8,N
1693003995.7,286047000.5,N
1693004015.6,286046999.7,N
1693004035.4,286046999.7,N
1693004055.2,286047000.0,N
1693004075.1,286046999.8,N
1693004076.0,286046999.8,N
1693004095.8,286047000.1,N
1693004115.7,286047000.4,N
1693004135.5,286047002.8,N
1693004155.3,286047000.2,N
1693004175.2,286047000.3,N
1693004195.0,286047000.3,N
1693004195.9,286047000.3,N
1693004215.7,286047000.6,N
1693004235.6,286047000.4,N
1693004255.4,286047000.6,N
1693004275.3,286047000.7,N
1693004295.1,286047000.3,N
1693004315.8,286046999.9,N
1693004335.7,286046999.9,N
1693004355.5,286047000.9,N
1693004375.3,286047000.8,N
1693004395.2,286046999.9,N
